INTELSAT 37E (IS-37E) (42950 NORAD) Tracking and Keplerian Element Data

This shows tracking and keplerian element data for the satellite.

Feedback or suggestion? Click here.




ElementValue
Catalog42950
NameINTELSAT 37E (IS-37E)
Epoch Orbit430
Epoch Day322.8891582
Epoch Year2018
RAAN281.0718
Inclination0.0183
Eccentricity0.0002988
Argument of Perigee315.6703
Mean Anonmoly123.2293
Mean Motion1.00269933
Decay Rate-1.31E-06
L11 42950U 17059A 18322.88915820 -.00000131 00000-0 00000-0 0 9995
L22 42950 0.0183 281.0718 0002988 315.6703 123.2293 1.00269933 4305

Live tracking and technical data element details for INTELSAT 37E (IS-37E) (NORAD 42950). INTELSAT 37E (IS-37E) can be tracked NOW for your location showing map with azimuth and elevation plus other details from your city location.

Track the satellite on the map from your city or location and see movement details for azimuth, elevation, latitude, longitude, range, height, and movement on the map or in text.







IsCatalogInMostPopularTable: catalog: 42950, numindb: 261
Update: records affected: 1



GetName: 42950 INTELSAT 37E (IS-37E)

Hit Count: updated at: Mon, 19 Nov 2018 11:17:31 GMT